Location: Home
(42.5358°N, 72.7383°W)
Time: 14:23:19
(UTC-05:00)

Vanguard 1 - Pass Details

Date: 07 December 2021
Orbit: 652 x 3830 km, 34.2° (Epoch: 19 January)

Event Time Altitude Azimuth Distance (km) Brightness Sun altitude
Rises 03:17:07 0° 276° (W) 7,894 - -41.5°
Reaches altitude 10° 03:22:35 10° 273° (W) 6,935 - -40.5°
Exits shadow 03:40:24 51° 237° (WSW) 4,082 12.7 -37.3°
Maximum altitude 03:44:48 56° 204° (SSW) 3,705 12.6 -36.5°
Drops below altitude 10° 03:59:56 10° 131° (SE) 4,929 14.1 -33.7°
Sets 04:03:05 0° 127° (SE) 5,584 14.6 -33.1°
